Michigan City, IN

2:54 AM CST on November 18, 2017 (GMT -0600)
Michigan City Municipal

Weather History for KMGC - October, 2013

Change the Weather History Date:

Saturday, October 26, 2013

  Actual Average (KSBN) Record (KSBN)
Temperature  
Mean Temperature 47 °F -  
Max Temperature 53 °F 58 °F 82 °F (1963)
Min Temperature 41 °F 40 °F 23 °F (1942)
Degree Days  
Heating Degree Days 18    
Moisture  
Dew Point 29 °F    
Average Humidity 53    
Maximum Humidity 61    
Minimum Humidity 46    
Precipitation  
Precipitation 0.00 in - - ()
Sea Level Pressure  
Sea Level Pressure 29.96 in    
Wind  
Wind Speed 14 mph (West)    
Max Wind Speed 18 mph    
Max Gust Speed 28 mph    
Visibility 10 miles    
Events      
Averages and records for this station are not official NWS values.
T = Trace of Precipitation, MM = Missing Value Source: NWS Daily Summary

Daily Weather History Graph

Daily Weather History Graph

Search for Another Location

Airport or City:

Trip Planner

Search our weather history database for the weather conditions in past years. The results will help you decide how hot, cold, wet, or windy it might be!

Date:

Astronomy

Oct. 26, 2013 Rise Set
Actual Time 7:12 AM CDT 5:49 PM CDT
Civil Twilight 6:43 AM CDT 6:17 PM CDT
Nautical Twilight 6:11 AM CDT 6:50 PM CDT
Astronomical Twilight 5:39 AM CDT 7:22 PM CDT
Moon No Moon Rise 1:28 PM CDT (10/26)
Length of Visible Light 11h 33m
Length of Day
10h 36m
Waning Gibbous, 53% of the Moon is Illuminated
Oct 26
Waning Gibbous
Oct 26
Last Quarter
Nov 3
New
Nov 9
First Quarter
Nov 17
Full

Hourly Weather History & Observations

Time (CDT) Temp. Windchill Dew Point Humidity Pressure Visibility Wind Dir Wind Speed Gust Speed Precip Events Conditions
12:15 AM 42.8 °F 35.1 °F 26.6 °F 53% 30.08 in 10.0 mi SSW 16.1 mph 23.0 mph N/A   Scattered Clouds
12:35 AM 42.8 °F 35.1 °F 26.6 °F 53% 30.07 in 10.0 mi SSW 16.1 mph 25.3 mph N/A   Scattered Clouds
12:55 AM 42.8 °F 34.8 °F 26.6 °F 53% 30.07 in 10.0 mi SSW 17.3 mph 27.6 mph N/A   Scattered Clouds
1:15 AM 42.8 °F 35.1 °F 26.6 °F 53% 30.07 in 10.0 mi SW 16.1 mph 23.0 mph N/A   Scattered Clouds
1:35 AM 41.0 °F 33.5 °F 26.6 °F 57% 30.05 in 10.0 mi SW 13.8 mph 21.9 mph N/A   Scattered Clouds
1:55 AM 41.0 °F 33.1 °F 26.6 °F 57% 30.04 in 10.0 mi SSW 15.0 mph 26.5 mph N/A   Clear
2:15 AM 41.0 °F 32.5 °F 26.6 °F 57% 30.04 in 10.0 mi SSW 17.3 mph 24.2 mph N/A   Clear
2:35 AM 41.0 °F 33.1 °F 26.6 °F 57% 30.03 in 10.0 mi SSW 15.0 mph 20.7 mph N/A   Mostly Cloudy
2:55 AM 41.0 °F 33.9 °F 26.6 °F 57% 30.02 in 10.0 mi SSW 12.7 mph 19.6 mph N/A   Overcast
3:15 AM 41.0 °F 33.5 °F 26.6 °F 57% 30.00 in 10.0 mi SSW 13.8 mph 21.9 mph N/A   Overcast
3:35 AM 41.0 °F 32.2 °F 26.6 °F 57% 29.98 in 10.0 mi SSW 18.4 mph 25.3 mph N/A   Overcast
3:55 AM 41.0 °F 32.5 °F 24.8 °F 53% 29.97 in 10.0 mi SSW 17.3 mph 25.3 mph N/A   Overcast
4:15 AM 41.0 °F 33.1 °F 24.8 °F 53% 29.96 in 10.0 mi SSW 15.0 mph 24.2 mph N/A   Overcast
4:35 AM 42.8 °F 34.5 °F 24.8 °F 49% 29.94 in 10.0 mi SSW 18.4 mph 26.5 mph N/A   Overcast
4:55 AM 41.0 °F 32.5 °F 24.8 °F 53% 29.94 in 10.0 mi SSW 17.3 mph 24.2 mph N/A   Overcast
5:15 AM 41.0 °F 32.8 °F 26.6 °F 57% 29.92 in 10.0 mi SSW 16.1 mph 21.9 mph N/A   Overcast
5:35 AM 41.0 °F 32.8 °F 26.6 °F 57% 29.92 in 10.0 mi SSW 16.1 mph 25.3 mph N/A   Overcast
5:55 AM 42.8 °F 35.8 °F 26.6 °F 53% 29.91 in 10.0 mi SSW 13.8 mph 19.6 mph N/A   Overcast
6:15 AM 42.8 °F 35.4 °F 26.6 °F 53% 29.90 in 10.0 mi SSW 15.0 mph 21.9 mph N/A   Overcast
6:35 AM 42.8 °F 35.4 °F 26.6 °F 53% 29.90 in 10.0 mi SW 15.0 mph 23.0 mph N/A   Overcast
6:55 AM 42.8 °F 35.4 °F 26.6 °F 53% 29.90 in 10.0 mi SW 15.0 mph 26.5 mph N/A   Overcast
7:15 AM 42.8 °F 35.8 °F 26.6 °F 53% 29.89 in 10.0 mi SW 13.8 mph 26.5 mph N/A   Overcast
7:35 AM 42.8 °F 34.8 °F 26.6 °F 53% 29.88 in 10.0 mi SW 17.3 mph 25.3 mph N/A   Overcast
7:55 AM 42.8 °F 34.8 °F 28.4 °F 57% 29.88 in 10.0 mi SSW 17.3 mph 25.3 mph N/A   Overcast
8:15 AM 42.8 °F 35.8 °F 28.4 °F 57% 29.87 in 10.0 mi SW 13.8 mph 27.6 mph N/A   Overcast
8:35 AM 42.8 °F 35.4 °F 28.4 °F 57% 29.87 in 10.0 mi SW 15.0 mph 24.2 mph N/A   Overcast
8:55 AM 44.6 °F 37.8 °F 30.2 °F 57% 29.88 in 10.0 mi SW 15.0 mph 23.0 mph N/A   Overcast
9:15 AM 44.6 °F 37.8 °F 30.2 °F 57% 29.87 in 10.0 mi SW 15.0 mph 23.0 mph N/A   Overcast
9:35 AM 44.6 °F 37.8 °F 30.2 °F 57% 29.87 in 10.0 mi WSW 15.0 mph 24.2 mph N/A   Overcast
9:55 AM 44.6 °F 38.1 °F 30.2 °F 57% 29.87 in 10.0 mi WSW 13.8 mph 23.0 mph N/A   Overcast
10:15 AM 46.4 °F 40.7 °F 32.0 °F 57% 29.86 in 10.0 mi WSW 12.7 mph 23.0 mph N/A   Mostly Cloudy
10:35 AM 50.0 °F - 32.0 °F 50% 29.85 in 10.0 mi WSW 12.7 mph 20.7 mph N/A   Scattered Clouds
10:55 AM 50.0 °F - 32.0 °F 50% 29.86 in 10.0 mi West 15.0 mph 23.0 mph N/A   Clear
11:15 AM 48.2 °F - 32.0 °F 54% 29.86 in 10.0 mi West 15.0 mph 24.2 mph N/A   Clear
11:35 AM 51.8 °F - 32.0 °F 47% 29.87 in 10.0 mi West 13.8 mph 23.0 mph N/A   Scattered Clouds
11:55 AM 51.8 °F - 32.0 °F 47% 29.87 in 10.0 mi West 16.1 mph 27.6 mph N/A   Scattered Clouds
12:15 PM 50.0 °F - 33.8 °F 54% 29.86 in 10.0 mi West 10.4 mph 26.5 mph N/A   Clear
12:35 PM 50.0 °F - 33.8 °F 54% 29.87 in 10.0 mi West 12.7 mph 18.4 mph N/A   Scattered Clouds
12:55 PM 51.8 °F - 33.8 °F 50% 29.87 in 10.0 mi West 16.1 mph 21.9 mph N/A   Scattered Clouds
1:15 PM 51.8 °F - 33.8 °F 50% 29.87 in 10.0 mi WNW 12.7 mph 23.0 mph N/A   Overcast
1:35 PM 51.8 °F - 33.8 °F 50% 29.88 in 10.0 mi WNW 11.5 mph 23.0 mph N/A   Mostly Cloudy
1:55 PM 51.8 °F - 33.8 °F 50% 29.88 in 10.0 mi WNW 11.5 mph 19.6 mph N/A   Mostly Cloudy
2:15 PM 51.8 °F - 33.8 °F 50% 29.89 in 10.0 mi WNW 9.2 mph 18.4 mph N/A   Mostly Cloudy
2:35 PM 53.6 °F - 35.6 °F 51% 29.90 in 10.0 mi WNW 15.0 mph 21.9 mph N/A   Scattered Clouds
2:55 PM 50.0 °F - 35.6 °F 58% 29.90 in 10.0 mi WNW 11.5 mph 18.4 mph N/A   Overcast
3:15 PM 50.0 °F - 33.8 °F 54% 29.91 in 10.0 mi WNW 9.2 mph - N/A   Overcast
3:35 PM 50.0 °F - 33.8 °F 54% 29.92 in 10.0 mi NW 9.2 mph 17.3 mph N/A   Overcast
3:55 PM 50.0 °F - 32.0 °F 50% 29.94 in 10.0 mi NW 9.2 mph 16.1 mph N/A   Overcast
4:15 PM 50.0 °F - 33.8 °F 54% 29.94 in 10.0 mi NNW 9.2 mph 20.7 mph N/A   Overcast
4:35 PM 50.0 °F - 33.8 °F 54% 29.96 in 10.0 mi NNW 10.4 mph 19.6 mph N/A   Overcast
4:55 PM 50.0 °F - 32.0 °F 50% 29.97 in 10.0 mi NW 10.4 mph 16.1 mph N/A   Overcast
5:15 PM 50.0 °F - 32.0 °F 50% 29.97 in 10.0 mi NNW 9.2 mph 19.6 mph N/A   Overcast
5:35 PM 48.2 °F - 30.2 °F 50% 29.98 in 10.0 mi NNW 10.4 mph 17.3 mph N/A   Overcast
5:55 PM 48.2 °F - 28.4 °F 46% 29.99 in 10.0 mi NNW 9.2 mph 19.6 mph N/A   Overcast
6:15 PM 48.2 °F - 28.4 °F 46% 30.00 in 10.0 mi NNW 6.9 mph 19.6 mph N/A   Overcast
6:35 PM 46.4 °F 41.5 °F 26.6 °F 46% 30.00 in 10.0 mi NNW 10.4 mph 20.7 mph N/A   Mostly Cloudy
6:55 PM 46.4 °F 43.5 °F 28.4 °F 50% 30.01 in 10.0 mi NNW 5.8 mph - N/A   Scattered Clouds
7:15 PM 48.2 °F - 28.4 °F 46% 30.02 in 10.0 mi NNW 5.8 mph - N/A   Mostly Cloudy
7:35 PM 46.4 °F 43.5 °F 26.6 °F 46% 30.02 in 10.0 mi NNW 5.8 mph - N/A   Mostly Cloudy
7:55 PM 48.2 °F - 28.4 °F 46% 30.03 in 10.0 mi NNW 8.1 mph - N/A   Mostly Cloudy
8:15 PM 48.2 °F - 28.4 °F 46% 30.03 in 10.0 mi NW 5.8 mph - N/A   Overcast
8:35 PM 48.2 °F - 30.2 °F 50% 30.03 in 10.0 mi NW 9.2 mph 16.1 mph N/A   Overcast
8:55 PM 48.2 °F - 30.2 °F 50% 30.03 in 10.0 mi NNW 6.9 mph - N/A   Overcast
9:15 PM 46.4 °F 42.4 °F 28.4 °F 50% 30.04 in 10.0 mi NW 8.1 mph - N/A   Overcast
9:35 PM 46.4 °F 42.4 °F 28.4 °F 50% 30.05 in 10.0 mi NW 8.1 mph - N/A   Mostly Cloudy
9:55 PM 46.4 °F 45.2 °F 28.4 °F 50% 30.06 in 10.0 mi NW 3.5 mph - N/A   Mostly Cloudy
10:15 PM 44.6 °F 43.1 °F 30.2 °F 57% 30.06 in 10.0 mi NW 3.5 mph - N/A   Scattered Clouds
10:35 PM 46.4 °F 43.5 °F 30.2 °F 53% 30.06 in 10.0 mi NW 5.8 mph - N/A   Mostly Cloudy
10:55 PM 44.6 °F 42.2 °F 30.2 °F 57% 30.06 in 10.0 mi NW 4.6 mph - N/A   Scattered Clouds
11:15 PM 44.6 °F 43.1 °F 30.2 °F 57% 30.05 in 10.0 mi NW 3.5 mph - N/A   Scattered Clouds
11:35 PM 44.6 °F - 30.2 °F 57% 30.05 in 10.0 mi Calm Calm - N/A   Scattered Clouds
11:55 PM 42.8 °F - 30.2 °F 61% 30.05 in 10.0 mi Calm Calm - N/A   Scattered Clouds